Вернуться в каталог

XINGRUI-11

АктивенНаукаSSO
NORAD 64089·PAYLOAD·🇨🇳 China
Это название спутника еще не подтверждено официальными источниками.

Запущен May 21, 2025 с Jiuquan Satellite Launch Center

Loading…

Ближайшие Пролёты (ближайшие 24 часа)

TLE

СвежийSource: Space-Track

Эпоха: Sep 14, 2026, 15:33 UTC

1 64089U 25108C   26257.64842876  .00003201  00000-0  18521-3 0  9996
2 64089  97.4615 329.9326 0006593  95.0974 265.1010 15.12936836 72796

Отслеживайте XINGRUI-11 в реальном времени с AllMySat

Download on the App Store